Find Starlink 5122

NORAD ID: 54179 Int'l Des: 2022-141 Owner: SPXS Country: US Constellation: starlink operational
LEOCIRCULAR

实时位置

正在加载3D地球...

关于 Starlink 5122

正在加载描述...

即将过境

Passes for default location (London). Set your location on the main map for personalized predictions.

高度历史

Loading altitude history...

两行轨道根数

1 54179U 22141Y 26104.55560991 -.00000166 00000-0 76751-5 0 9994
2 54179 53.2171 203.0028 0001286 86.7899 273.3240 15.08837434191270
Epoch: Apr 14, 2026 • Age: 9 hours

当前状态

高度 559.1 km
速度 7.58 km/s
星下点 -53.05°S, 77.32°W
发射日期 Oct 28, 2022
运行时间 3.4 years
类型 internet

技术详情

分类 Payload
质量 305.00 kg
干质量 290.00 kg
总质量 305.00 kg
长度 0.20 m
直径 2.80 m
跨度 9.00 m
形状 Box + pan
制造商 SPXS
平台类型 Starlink
阶段状态 In Orbit
所有者/国家 SPXS/US

Most Searched